Presure
245 222 231 245 255 250 209 207 216 213 215 209 205 208 217 237 221 229 230 231 161 221 223 244 214 207 182 123 202 221 231 151 127 133 137 129 104 116 112 104 117 126 129 121
211 252 221 224 233 223 213 218 208 211 216 207 217 208 208 211 227 226 219 220 232 221 220 220 214 220 214 188 204 140 133 125 122 128 117 103 126 118 136 105 121 118 119 124
216 215 249 223 225 222 228 216 214 228 222 227 215 205 210 211 210 227 232 227 232 224 211 217 217 161 155 211 139 193 188 215 187 142 157 149 118 127 131 148 116 122 119 126
231 205 205 233 230 225 225 226 218 225 204 209 211 214 207 196 197 199 225 227 218 235 212 215 82 81 140 219 171 145 227 137 203 127 131 185 158 188 157 117 141 119 144 120
228 234 160 197 231 229 232 237 232 226 230 235 216 200 218 220 198 194 224 227 232 222 236 221 201 211 219 222 120 112 203 214 224 228 124 214 206 133 114 212 199 154 146 214
224 229 229 220 193 241 242 227 226 237 242 245 243 231 234 234 218 224 227 220 219 211 215 230 221 206 227 225 210 215 224 218 164 123 142 212 230 212 155 129 186 214 160 154
226 221 231 229 227 200 189 227 231 232 238 239 281 250 249 235 232 230 231 225 215 218 218 213 216 218 216 217 226 231 225 137 223 213 210 215 119 156 164 205 177 222 225 202
227 215 232 226 231 224 227 232 197 239 235 236 240 302 336 249 242 235 228 221 225 223 214 218 217 209 211 218 222 219 229 230 234 237 237 215 121 242 251 256 282 253 236 253
233 221 216 228 224 221 226 226 227 233 235 240 256 263 275 297 302 260 237 233 229 227 221 225 224 227 231 238 235 226 228 237 242 264 265 267 241 280 276 277 280 285 290 269
211 226 215 226 220 221 218 218 228 235 233 233 237 239 252 249 257 263 265 237 225 227 233 253 238 240 243 246 246 247 244 254 269 263 258 256 252 251 215 256 257 264 269 275
206 226 222 211 220 221 218 214 208 222 224 232 227 232 237 242 246 244 245 246 247 249 253 254 255 258 261 262 260 255 248 244 242 238 239 242 242 243 245 309 325 332 332 349
196 210 230 215 214 221 217 210 205 208 221 225 230 232 233 232 234 236 238 240 239 240 240 242 242 239 238 234 234 232 225 228 230 237 237 282 281 279 277 280 288 294 304 311
196 171 218 225 211 207 216 214 212 205 202 219 217 213 217 222 222 225 225 227 228 227 225 225 223 216 215 220 225 226 229 239 265 270 267 265 273 263 255 242 265 267 270 279
196 200 205 224 219 209 223 222 214 205 201 203 212 214 214 210 207 207 209 210 210 210 212 214 217 219 218 222 225 256 256 254 266 255 255 245 250 245 249 258 255 262 164 255
200 196 202 204 222 217 209 218 215 209 204 204 200 203 203 207 209 210 212 212 213 215 216 212 215 219 221 252 254 254 250 248 255 251 243 239 236 241 227 224 223 249 250 259
194 192 201 201 201 225 213 209 214 212 208 207 205 201 201 199 201 201 202 206 204 207 211 211 234 245 246 242 245 246 245 241 241 251 247 240 238 231 230 225 236 237 239 233
195 196 199 202 203 215 225 203 205 210 211 216 210 208 203 203 203 204 205 206 209 216 228 234 239 238 242 246 261 264 262 258 252 139 240 238 238 240 236 234 235 234 237 102
195 195 191 200 200 203 211 211 201 201 212 208 210 216 211 211 211 211 215 220 226 226 226 228 230 231 224 221 223 247 253 253 250 245 242 238 234 231 231 236 235 237 234 232
201 198 200 193 201 191 210 211 208 205 202 208 215 217 216 219 219 221 224 222 223 222 221 226 226 217 226 228 228 221 225 229 232 234 235 234 232 232 233 233 232 233 240 247
204 198 202 195 195 190 186 212 212 208 206 203 209 221 215 214 217 230 216 222 222 222 225 218 215 211 219 213 214 215 217 213 213 206 210 212 217 220 225 225 228 234 238 242
204 205 196 197 193 193 181 190 207 212 204 209 209 213 215 215 227 209 219 218 215 214 206 208 206 208 205 210 203 204 210 213 210 218 235 230 230 228 225 226 229 229 233 236
201 204 202 198 193 187 191 190 189 206 212 212 212 208 201 212 204 200 199 201 203 217 208 208 205 203 207 204 208 211 213 211 205 201 227 229 224 224 224 225 230 229 239 226
209 201 205 196 197 192 193 198 190 199 225 217 212 209 205 202 196 201 200 199 200 203 203 204 202 201 201 205 206 206 207 208 206 221 227 213 219 222 223 218 242 241 236 239
214 207 205 201 196 195 194 195 195 198 201 224 214 207 205 202 202 199 198 199 200 198 198 200 200 200 200 201 202 205 205 205 213 213 215 214 215 234 237 234 243 247 250 253
226 209 199 207 197 200 197 196 198 199 202 199 217 216 210 206 206 202 202 201 201 202 204 204 203 203 204 205 206 209 213 216 215 216 215 223 217 235 239 240 230 234 238 242
218 223 206 210 198 201 200 202 201 201 199 198 203 204 213 215 211 211 212 209 207 203 205 208 207 209 210 211 212 213 212 217 216 217 218 212 218 221 228 224 227 231 238 242
Wind_Speed
40 43 44 40 45 56 62 65 66 67 69 69 70 71 70 64 70 65 65 63 73 68 67 63 78 77 86 74 70 72 69 85 73 71 71 69 55 65 61 52 64 67 67 62
42 47 48 48 47 53 60 63 65 65 68 66 68 69 69 67 67 69 71 68 64 71 77 76 76 69 75 81 76 59 75 75 73 74 67 47 70 70 69 53 68 67 67 68
43 43 47 51 53 55 55 59 65 67 68 69 69 67 67 68 69 70 70 69 68 73 76 75 75 60 58 77 84 78 71 79 84 86 79 88 69 73 73 77 64 74 71 73
39 47 47 48 53 57 60 64 67 64 64 65 69 70 66 64 65 67 67 67 68 72 73 73 44 39 82 74 80 76 73 42 83 80 81 83 83 83 95 63 77 74 77 70
37 38 49 52 49 53 56 61 65 67 69 68 69 64 70 72 66 68 69 65 63 66 73 75 75 74 76 77 83 65 81 77 81 85 75 92 92 79 60 95 92 89 79 96
36 38 41 46 52 47 53 57 58 58 62 63 68 71 68 72 73 71 70 70 70 72 71 71 76 74 74 82 79 80 84 85 71 77 78 87 93 96 83 79 103 102 87 87
36 39 38 41 44 54 56 52 53 54 54 57 46 62 69 72 69 68 69 71 71 71 72 73 74 74 75 77 78 81 84 64 89 89 88 91 72 75 82 96 83 104 106 106
34 37 37 39 40 45 46 47 52 47 50 53 50 26 22 65 68 69 70 69 70 71 73 75 76 76 77 78 80 82 84 87 87 88 89 82 43 95 99 101 105 106 106 115
32 37 39 39 40 42 43 42 43 42 48 44 28 23 18 19 23 55 69 71 71 73 73 75 77 78 79 78 83 81 82 85 87 85 85 81 69 74 77 78 80 82 85 83
35 37 39 38 38 40 43 42 38 39 41 41 35 31 24 26 25 27 32 54 66 67 68 63 73 76 77 77 76 76 76 70 63 65 66 67 68 70 69 74 75 78 81 83
38 35 38 39 40 41 41 41 43 37 39 39 39 33 29 28 28 31 34 37 42 45 46 48 51 52 52 51 52 53 57 60 62 65 65 65 66 67 69 38 30 29 31 31
41 36 36 40 40 39 40 43 45 44 40 39 35 32 30 33 32 32 34 36 38 41 42 44 45 47 49 52 54 55 60 62 63 62 63 46 44 42 43 40 34 32 31 31
46 38 35 36 38 38 43 45 45 45 43 38 39 38 35 35 35 35 37 38 40 41 43 44 47 51 54 56 55 56 57 56 49 45 43 41 36 39 40 54 35 33 33 33
48 41 38 38 41 46 40 40 41 42 43 44 40 35 36 37 41 42 42 42 43 44 46 47 49 50 53 53 53 46 47 47 41 43 39 41 36 38 35 33 35 34 30 40
48 45 43 41 41 42 41 38 40 42 47 44 43 41 39 39 43 43 43 43 44 44 45 49 49 49 49 42 42 43 43 43 39 39 39 40 39 35 47 53 57 38 41 39
53 50 46 43 39 39 40 37 38 43 47 48 46 43 41 43 43 45 44 46 47 47 47 47 43 38 36 37 38 40 40 39 38 33 34 36 37 39 43 47 40 41 44 46
55 51 47 43 39 37 35 44 43 44 46 45 46 45 46 48 45 47 47 47 44 44 41 38 36 33 32 33 30 28 29 29 29 28 31 32 34 36 39 41 43 46 48 31
58 56 49 43 40 31 38 44 47 47 45 45 49 44 49 45 45 47 44 43 38 37 37 36 32 30 31 32 33 25 24 25 26 28 30 32 36 38 41 42 43 45 47 49
63 58 52 47 44 45 42 45 48 49 49 45 47 42 44 43 42 42 36 39 35 36 37 33 31 33 28 28 28 30 29 28 28 29 32 34 37 40 43 45 47 49 51 53
67 62 57 51 46 46 51 49 48 49 49 47 47 41 42 39 42 33 38 36 34 36 34 34 34 34 32 33 33 33 31 32 33 35 36 37 39 42 44 47 50 53 54 57
69 67 58 56 52 51 58 55 49 48 51 48 46 39 36 41 31 34 37 33 35 35 38 37 37 37 38 36 37 36 36 37 38 40 38 42 43 46 48 51 54 55 57 59
71 69 65 60 58 55 56 58 57 53 54 48 45 42 42 36 35 42 38 38 39 34 38 38 40 41 41 42 41 39 41 42 42 43 43 44 48 51 52 55 57 59 60 61
75 68 69 63 62 62 65 65 60 51 51 49 44 44 43 41 41 40 39 40 41 41 41 41 42 44 46 46 45 45 44 46 47 48 46 50 52 54 57 58 55 57 62 63
79 74 72 70 66 66 66 64 63 56 48 46 48 46 45 44 43 44 44 43 43 44 45 44 46 48 49 49 49 49 50 50 51 53 53 55 56 52 53 55 53 54 55 56
85 78 69 72 68 69 70 70 67 57 49 46 45 48 47 47 47 47 47 47 46 46 47 47 48 52 52 53 54 52 51 51 52 54 56 56 59 52 51 50 57 60 62 62
76 78 71 72 73 76 78 74 67 58 52 48 46 44 46 47 47 50 48 47 46 46 48 48 49 52 53 54 54 53 53 53 54 55 57 59 60 57 51 58 59 61 64 66
Wind_Direction
223 227 229 227 224 223 235 237 236 236 235 235 236 238 240 244 241 243 242 241 239 248 248 245 249 253 243 240 248 250 249 243 242 245 247 247 265 246 251 258 251 247 248 251
229 223 226 229 226 229 232 233 238 238 239 240 240 239 242 243 240 241 245 244 237 238 244 243 245 249 249 246 247 254 243 243 246 243 243 255 240 243 256 263 248 252 251 251
230 228 223 227 225 228 228 234 236 236 238 239 240 239 240 242 242 240 240 243 241 238 245 248 249 239 254 251 245 247 247 248 248 249 248 251 247 251 244 254 254 246 252 249
233 229 228 225 227 230 230 229 235 235 241 241 241 243 242 241 242 245 243 243 242 238 243 247 249 255 251 253 246 246 245 250 246 249 247 252 249 253 256 256 252 255 252 256
233 233 233 230 231 231 232 234 234 236 236 237 245 243 245 244 242 243 245 245 246 244 241 242 248 248 253 252 256 264 251 251 248 247 256 251 252 256 253 253 251 256 252 249
233 231 232 230 235 234 234 236 237 238 239 242 242 242 242 244 245 247 247 247 246 245 246 246 246 249 251 251 251 255 256 254 253 256 255 252 254 255 258 259 255 256 252 255
236 232 232 232 234 233 239 239 239 240 243 244 245 244 241 243 244 246 247 248 248 249 249 248 248 251 252 251 253 255 256 259 258 256 256 258 255 256 258 257 255 258 258 257
239 233 237 235 235 236 239 238 244 243 245 248 247 247 236 244 245 246 245 247 248 250 250 253 254 252 253 256 256 256 259 260 262 263 265 266 271 265 265 264 265 261 260 260
241 236 233 233 235 238 238 239 243 243 245 249 240 242 238 228 225 241 245 247 248 249 251 254 255 256 258 261 261 262 264 266 267 270 271 272 267 271 271 271 270 269 267 264
239 236 233 234 232 237 239 239 240 236 240 243 241 241 236 234 227 226 232 244 248 250 254 258 257 260 262 263 265 268 270 272 272 273 274 273 273 273 270 272 271 270 269 268
236 236 234 229 234 233 237 241 245 244 244 238 242 236 232 230 229 232 235 238 243 247 251 254 257 261 264 267 268 269 270 272 273 274 275 277 277 276 275 291 302 303 303 311
237 234 234 230 232 233 232 235 240 244 242 240 234 231 228 231 230 232 236 240 242 247 250 255 260 263 266 267 269 270 272 273 275 277 278 284 282 281 281 282 292 301 311 313
235 239 236 233 229 230 232 230 233 239 246 240 241 243 239 239 239 239 241 244 248 251 256 259 262 265 267 269 270 272 274 277 280 281 283 283 284 284 281 279 290 295 296 299
232 234 232 235 229 228 235 234 233 236 241 244 243 240 242 244 248 250 250 253 256 258 261 262 263 265 267 272 275 280 280 281 280 280 278 277 279 281 285 295 294 296 269 287
231 233 233 232 235 232 230 235 234 234 239 242 243 243 245 247 249 251 254 256 256 257 259 262 265 269 273 280 280 279 281 283 280 276 274 275 277 283 271 274 275 293 292 293
228 229 233 234 232 237 232 232 236 238 238 238 241 245 246 250 252 254 255 255 257 261 264 267 275 278 279 281 283 282 280 280 279 277 277 278 280 278 277 280 293 292 292 285
228 230 232 233 234 237 233 232 232 237 240 241 242 242 245 247 250 254 256 259 262 267 273 274 275 277 281 282 284 284 283 281 282 259 277 281 284 287 288 292 293 292 293 246
226 228 229 232 231 232 234 234 232 234 240 239 241 240 246 249 251 255 260 265 267 269 271 274 274 274 278 280 284 295 301 298 297 295 293 291 293 295 295 295 295 295 295 294
229 229 228 227 228 226 233 235 233 234 237 239 243 240 244 247 250 254 258 261 263 264 267 269 270 275 276 281 288 290 298 302 305 303 302 301 299 299 300 302 302 302 304 306
228 229 227 225 228 228 234 238 236 236 239 240 243 241 244 249 250 254 254 257 259 260 262 266 271 275 279 282 286 291 296 297 300 300 302 302 303 305 306 306 306 306 308 309
225 228 228 226 225 228 233 238 240 237 241 238 243 242 244 246 251 249 252 255 256 259 264 268 272 275 278 283 286 290 296 299 301 303 304 304 305 306 307 307 308 309 309 309
224 225 226 226 226 228 235 239 239 236 237 240 240 242 242 246 244 250 255 257 260 257 263 268 272 278 282 286 289 294 298 299 299 301 304 303 305 306 307 308 308 309 308 308
222 224 225 225 227 228 232 236 240 240 239 242 241 244 245 245 245 251 252 254 259 263 266 270 276 280 284 287 291 294 297 299 301 305 304 306 307 306 307 308 311 310 309 309
221 222 222 223 226 228 234 236 240 239 239 241 242 242 244 249 248 249 253 257 260 264 269 273 276 279 283 287 290 294 297 299 300 302 303 304 304 306 307 308 314 315 316 317
221 220 221 222 225 229 232 236 238 239 240 240 242 243 244 247 251 253 254 257 261 265 268 272 275 279 283 286 289 293 295 296 298 298 300 301 303 310 313 315 311 312 314 318
222 222 222 223 224 227 232 234 238 240 239 240 242 242 245 247 249 254 254 257 261 265 270 272 273 276 279 283 288 291 293 295 295 297 298 301 302 306 311 309 313 316 319 322